Time,TemperatureF,DewpointF,PressureIn,WindDirection,WindDirectionDegrees,WindSpeedMPH,WindSpeedGustMPH,Humidity,HourlyPrecipIn,Conditions,Clouds,dailyrainin,SoftwareType,DateUTC
2013-08-22 00:01:00,74.7,64.3,30.00,North,0,0.0,0.0,70,0.00,,,0.00,WUHU21623XXSP,2013-08-22 05:01:00,
2013-08-22 00:06:00,74.5,64.1,30.01,North,0,0.0,0.0,70,0.00,,,0.00,WUHU21623XXSP,2013-08-22 05:06:00,
2013-08-22 00:11:00,74.5,64.1,30.01,North,0,0.0,0.0,70,0.00,,,0.00,WUHU21623XXSP,2013-08-22 05:11:00,
2013-08-22 00:16:00,74.5,64.1,30.01,North,0,0.0,0.0,70,0.00,,,0.00,WUHU21623XXSP,2013-08-22 05:16:00,
2013-08-22 00:21:00,74.5,64.1,30.01,North,0,0.0,0.0,70,0.00,,,0.00,WUHU21623XXSP,2013-08-22 05:21:00,
2013-08-22 00:26:00,74.3,63.5,30.01,North,0,0.0,0.0,69,0.00,,,0.00,WUHU21623XXSP,2013-08-22 05:26:00,
2013-08-22 00:31:00,74.1,63.3,30.02,North,0,0.0,0.0,69,0.00,,,0.00,WUHU21623XXSP,2013-08-22 05:31:00,
2013-08-22 00:36:00,74.3,63.5,30.02,North,0,0.0,0.0,69,0.00,,,0.00,WUHU21623XXSP,2013-08-22 05:36:00,
2013-08-22 00:41:00,74.3,63.5,30.02,North,0,0.0,0.0,69,0.00,,,0.00,WUHU21623XXSP,2013-08-22 05:41:00,
2013-08-22 00:46:00,74.3,63.1,30.02,North,0,0.0,0.0,68,0.00,,,0.00,WUHU21623XXSP,2013-08-22 05:46:00,
2013-08-22 00:51:00,74.3,63.1,30.02,North,0,0.0,0.0,68,0.00,,,0.00,WUHU21623XXSP,2013-08-22 05:51:00,
2013-08-22 00:56:00,74.1,62.9,30.01,North,0,0.0,0.0,68,0.00,,,0.00,WUHU21623XXSP,2013-08-22 05:56:00,
2013-08-22 01:01:00,74.1,63.3,30.01,North,0,0.0,0.0,69,0.00,,,0.00,WUHU21623XXSP,2013-08-22 06:01:00,
2013-08-22 01:10:00,74.1,63.3,30.01,North,0,0.0,0.0,69,0.00,,,0.00,WUHU21623XXSP,2013-08-22 06:10:00,
2013-08-22 01:15:00,73.8,63.0,30.01,North,0,0.0,0.0,69,0.00,,,0.00,WUHU21623XXSP,2013-08-22 06:15:00,
2013-08-22 01:20:00,73.8,62.6,30.02,North,0,0.0,0.0,68,0.00,,,0.00,WUHU21623XXSP,2013-08-22 06:20:00,
2013-08-22 01:25:00,73.8,62.6,30.02,North,0,0.0,0.0,68,0.00,,,0.00,WUHU21623XXSP,2013-08-22 06:25:00,
2013-08-22 01:30:00,73.6,62.9,30.03,North,0,0.0,0.0,69,0.00,,,0.00,WUHU21623XXSP,2013-08-22 06:30:00,
2013-08-22 01:35:00,73.6,62.9,30.02,North,0,0.0,0.0,69,0.00,,,0.00,WUHU21623XXSP,2013-08-22 06:35:00,
2013-08-22 01:40:00,73.2,62.5,30.03,North,0,0.0,0.0,69,0.00,,,0.00,WUHU21623XXSP,2013-08-22 06:40:00,
2013-08-22 01:45:00,73.2,62.5,30.03,North,0,0.0,0.0,69,0.00,,,0.00,WUHU21623XXSP,2013-08-22 06:45:00,
2013-08-22 01:50:00,73.0,62.3,30.03,North,0,0.0,0.0,69,0.00,,,0.00,WUHU21623XXSP,2013-08-22 06:50:00,
2013-08-22 01:55:00,73.0,62.3,30.03,North,0,0.0,0.0,69,0.00,,,0.00,WUHU21623XXSP,2013-08-22 06:55:00,
2013-08-22 02:00:00,72.9,62.2,30.03,North,0,0.0,0.0,69,0.00,,,0.00,WUHU21623XXSP,2013-08-22 07:00:00,
2013-08-22 02:05:00,72.7,62.0,30.03,North,0,0.0,0.0,69,0.00,,,0.00,WUHU21623XXSP,2013-08-22 07:05:00,
2013-08-22 02:10:00,72.7,62.0,30.02,North,0,0.0,0.0,69,0.00,,,0.00,WUHU21623XXSP,2013-08-22 07:10:00,
2013-08-22 02:15:00,72.7,62.0,30.03,North,0,0.0,0.0,69,0.00,,,0.00,WUHU21623XXSP,2013-08-22 07:15:00,
2013-08-22 02:20:00,72.7,62.0,30.03,North,0,0.0,0.0,69,0.00,,,0.00,WUHU21623XXSP,2013-08-22 07:20:00,
2013-08-22 02:25:00,72.7,62.0,30.03,North,0,0.0,0.0,69,0.00,,,0.00,WUHU21623XXSP,2013-08-22 07:25:00,
2013-08-22 02:30:00,72.7,62.0,30.03,North,0,0.0,0.0,69,0.00,,,0.00,WUHU21623XXSP,2013-08-22 07:30:00,
2013-08-22 02:35:00,72.5,61.8,30.03,North,0,0.0,0.0,69,0.00,,,0.00,WUHU21623XXSP,2013-08-22 07:35:00,
2013-08-22 02:40:00,72.5,61.8,30.02,North,0,0.0,0.0,69,0.00,,,0.00,WUHU21623XXSP,2013-08-22 07:40:00,
2013-08-22 02:45:00,72.3,61.6,30.02,North,0,0.0,0.0,69,0.00,,,0.00,WUHU21623XXSP,2013-08-22 07:45:00,
2013-08-22 02:50:00,72.3,61.2,30.02,North,0,0.0,0.0,68,0.00,,,0.00,WUHU21623XXSP,2013-08-22 07:50:00,
2013-08-22 02:55:00,72.3,61.2,30.03,North,0,0.0,0.0,68,0.00,,,0.00,WUHU21623XXSP,2013-08-22 07:55:00,
2013-08-22 03:00:00,72.3,61.2,30.03,North,0,0.0,0.0,68,0.00,,,0.00,WUHU21623XXSP,2013-08-22 08:00:00,
2013-08-22 03:05:00,72.3,61.2,30.03,North,0,0.0,0.0,68,0.00,,,0.00,WUHU21623XXSP,2013-08-22 08:05:00,
2013-08-22 03:10:00,72.3,61.2,30.03,North,0,0.0,0.0,68,0.00,,,0.00,WUHU21623XXSP,2013-08-22 08:10:00,
2013-08-22 03:16:00,72.3,60.7,30.03,North,0,0.0,0.0,67,0.00,,,0.00,WUHU21623XXSP,2013-08-22 08:16:00,
2013-08-22 03:21:00,72.3,60.7,30.03,North,0,0.0,0.0,67,0.00,,,0.00,WUHU21623XXSP,2013-08-22 08:21:00,
2013-08-22 03:26:00,72.3,60.3,30.03,North,0,0.0,0.0,66,0.00,,,0.00,WUHU21623XXSP,2013-08-22 08:26:00,
2013-08-22 03:31:00,72.1,60.1,30.03,North,0,0.0,0.0,66,0.00,,,0.00,WUHU21623XXSP,2013-08-22 08:31:00,
2013-08-22 03:36:00,72.1,59.7,30.04,North,0,0.0,0.0,65,0.00,,,0.00,WUHU21623XXSP,2013-08-22 08:36:00,
2013-08-22 03:41:00,72.1,59.3,30.04,North,0,0.0,0.0,64,0.00,,,0.00,WUHU21623XXSP,2013-08-22 08:41:00,
2013-08-22 03:46:00,72.1,58.8,30.05,North,0,0.0,0.0,63,0.00,,,0.00,WUHU21623XXSP,2013-08-22 08:46:00,
2013-08-22 03:51:00,72.0,58.6,30.05,North,0,0.0,0.0,63,0.00,,,0.00,WUHU21623XXSP,2013-08-22 08:51:00,
2013-08-22 03:56:00,72.0,58.6,30.05,North,0,0.0,0.0,63,0.00,,,0.00,WUHU21623XXSP,2013-08-22 08:56:00,
2013-08-22 04:01:00,72.0,58.6,30.05,North,0,0.0,0.0,63,0.00,,,0.00,WUHU21623XXSP,2013-08-22 09:01:00,
2013-08-22 04:06:00,71.8,58.0,30.05,North,0,0.0,0.0,62,0.00,,,0.00,WUHU21623XXSP,2013-08-22 09:06:00,
2013-08-22 04:11:00,71.8,58.0,30.06,North,0,0.0,0.0,62,0.00,,,0.00,WUHU21623XXSP,2013-08-22 09:11:00,
2013-08-22 04:16:00,71.8,58.0,30.06,North,0,0.0,0.0,62,0.00,,,0.00,WUHU21623XXSP,2013-08-22 09:16:00,
2013-08-22 04:21:00,71.6,58.0,30.06,North,0,0.0,0.0,63,0.00,,,0.00,WUHU21623XXSP,2013-08-22 09:21:00,
2013-08-22 04:26:00,71.4,58.1,30.06,North,0,0.0,0.0,63,0.00,,,0.00,WUHU21623XXSP,2013-08-22 09:26:00,
2013-08-22 04:31:00,71.4,58.1,30.07,North,0,0.0,0.0,63,0.00,,,0.00,WUHU21623XXSP,2013-08-22 09:31:00,
2013-08-22 04:36:00,71.4,58.1,30.05,North,0,0.0,0.0,63,0.00,,,0.00,WUHU21623XXSP,2013-08-22 09:36:00,
2013-08-22 04:41:00,71.4,57.7,30.05,North,0,0.0,0.0,62,0.00,,,0.00,WUHU21623XXSP,2013-08-22 09:41:00,
2013-08-22 04:46:00,71.4,57.7,30.06,North,0,0.0,0.0,62,0.00,,,0.00,WUHU21623XXSP,2013-08-22 09:46:00,
2013-08-22 04:51:00,71.2,57.5,30.06,North,0,0.0,0.0,62,0.00,,,0.00,WUHU21623XXSP,2013-08-22 09:51:00,
2013-08-22 04:56:00,71.2,57.5,30.06,North,0,0.0,0.0,62,0.00,,,0.00,WUHU21623XXSP,2013-08-22 09:56:00,
2013-08-22 05:01:00,71.1,56.9,30.06,North,0,0.0,0.0,61,0.00,,,0.00,WUHU21623XXSP,2013-08-22 10:01:00,
2013-08-22 05:06:00,70.9,56.8,30.05,North,0,0.0,0.0,61,0.00,,,0.00,WUHU21623XXSP,2013-08-22 10:06:00,
2013-08-22 05:11:00,70.7,56.6,30.06,North,0,0.0,0.0,61,0.00,,,0.00,WUHU21623XXSP,2013-08-22 10:11:00,
2013-08-22 05:16:00,70.5,56.5,30.06,North,0,0.0,0.0,61,0.00,,,0.00,WUHU21623XXSP,2013-08-22 10:16:00,
2013-08-22 05:21:00,70.5,56.5,30.06,North,0,0.0,0.0,61,0.00,,,0.00,WUHU21623XXSP,2013-08-22 10:21:00,
2013-08-22 05:26:00,70.3,56.3,30.06,North,0,0.0,0.0,61,0.00,,,0.00,WUHU21623XXSP,2013-08-22 10:26:00,
2013-08-22 05:32:00,70.2,56.1,30.06,North,0,0.0,0.0,61,0.00,,,0.00,WUHU21623XXSP,2013-08-22 10:32:00,
2013-08-22 05:37:00,70.0,55.6,30.06,North,0,0.0,0.0,60,0.00,,,0.00,WUHU21623XXSP,2013-08-22 10:37:00,
2013-08-22 05:42:00,70.0,55.6,30.05,North,0,0.0,0.0,60,0.00,,,0.00,WUHU21623XXSP,2013-08-22 10:42:00,
2013-08-22 05:47:00,69.8,55.4,30.05,North,0,0.0,0.0,60,0.00,,,0.00,WUHU21623XXSP,2013-08-22 10:47:00,
2013-08-22 05:50:00,69.6,55.2,30.05,North,0,0.0,0.0,60,0.00,,,0.00,WUHU21623XXSP,2013-08-22 10:50:00,
2013-08-22 05:56:00,69.6,55.2,30.05,North,0,0.0,0.0,60,0.00,,,0.00,WUHU21623XXSP,2013-08-22 10:56:00,
2013-08-22 06:02:00,69.4,55.5,30.04,North,0,0.0,0.0,61,0.00,,,0.00,WUHU21623XXSP,2013-08-22 11:02:00,
2013-08-22 06:07:00,69.4,55.5,30.04,North,0,0.0,0.0,61,0.00,,,0.00,WUHU21623XXSP,2013-08-22 11:07:00,
2013-08-22 06:13:00,69.1,55.5,30.05,North,0,0.0,0.0,62,0.00,,,0.00,WUHU21623XXSP,2013-08-22 11:13:00,
2013-08-22 06:20:00,68.7,55.6,30.05,North,0,0.0,0.0,63,0.00,,,0.00,WUHU21623XXSP,2013-08-22 11:20:00,
2013-08-22 06:26:00,68.5,55.8,30.06,North,0,0.0,0.0,64,0.00,,,0.00,WUHU21623XXSP,2013-08-22 11:26:00,
2013-08-22 06:32:00,68.2,55.5,30.06,North,0,0.0,0.0,64,0.00,,,0.00,WUHU21623XXSP,2013-08-22 11:32:00,
2013-08-22 06:39:00,68.2,55.5,30.06,North,0,0.0,0.0,64,0.00,,,0.00,WUHU21623XXSP,2013-08-22 11:39:00,
2013-08-22 06:45:00,68.2,55.5,30.06,North,0,0.0,0.0,64,0.00,,,0.00,WUHU21623XXSP,2013-08-22 11:45:00,
2013-08-22 06:50:00,68.2,55.1,30.06,North,0,0.0,0.0,63,0.00,,,0.00,WUHU21623XXSP,2013-08-22 11:50:00,
2013-08-22 06:56:00,68.2,55.1,30.07,North,0,0.0,0.0,63,0.00,,,0.00,WUHU21623XXSP,2013-08-22 11:56:00,
2013-08-22 07:00:00,68.2,55.1,30.07,North,0,0.0,0.0,63,0.00,,,0.00,WUHU21623XXSP,2013-08-22 12:00:00,
2013-08-22 07:07:00,68.2,54.6,30.07,North,0,0.0,0.0,62,0.00,,,0.00,WUHU21623XXSP,2013-08-22 12:07:00,
2013-08-22 07:13:00,68.2,54.6,30.08,North,0,0.0,0.0,62,0.00,,,0.00,WUHU21623XXSP,2013-08-22 12:13:00,
2013-08-22 07:27:00,68.2,54.2,30.09,North,0,0.0,0.0,61,0.00,,,0.00,WUHU21623XXSP,2013-08-22 12:27:00,
2013-08-22 07:32:00,68.0,54.0,30.10,North,0,0.0,0.0,61,0.00,,,0.00,WUHU21623XXSP,2013-08-22 12:32:00,
2013-08-22 07:37:00,67.8,53.4,30.10,North,0,0.0,0.0,60,0.00,,,0.00,WUHU21623XXSP,2013-08-22 12:37:00,
2013-08-22 07:42:00,67.8,53.4,30.10,North,0,0.0,0.0,60,0.00,,,0.00,WUHU21623XXSP,2013-08-22 12:42:00,
2013-08-22 07:47:00,67.8,53.0,30.10,North,0,0.0,0.0,59,0.00,,,0.00,WUHU21623XXSP,2013-08-22 12:47:00,
2013-08-22 07:52:00,68.2,53.3,30.11,North,0,0.0,0.0,59,0.00,,,0.00,WUHU21623XXSP,2013-08-22 12:52:00,
2013-08-22 07:57:00,68.4,53.0,30.11,North,0,0.0,0.0,58,0.00,,,0.00,WUHU21623XXSP,2013-08-22 12:57:00,
2013-08-22 08:01:00,68.5,53.2,30.11,North,0,0.0,0.0,58,0.00,,,0.00,WUHU21623XXSP,2013-08-22 13:01:00,
2013-08-22 08:06:00,68.7,52.3,30.11,North,0,0.0,0.0,56,0.00,,,0.00,WUHU21623XXSP,2013-08-22 13:06:00,
2013-08-22 08:11:00,68.9,52.5,30.11,North,0,0.0,0.0,56,0.00,,,0.00,WUHU21623XXSP,2013-08-22 13:11:00,
2013-08-22 08:16:00,69.1,52.2,30.11,North,0,0.0,0.0,55,0.00,,,0.00,WUHU21623XXSP,2013-08-22 13:16:00,
2013-08-22 08:21:00,69.1,52.2,30.11,North,0,0.0,0.0,55,0.00,,,0.00,WUHU21623XXSP,2013-08-22 13:21:00,
2013-08-22 08:26:00,69.4,52.5,30.11,North,0,0.0,0.0,55,0.00,,,0.00,WUHU21623XXSP,2013-08-22 13:26:00,
2013-08-22 08:31:00,69.4,52.5,30.11,North,0,0.0,0.0,55,0.00,,,0.00,WUHU21623XXSP,2013-08-22 13:31:00,
2013-08-22 08:36:00,69.4,52.0,30.11,North,0,0.0,0.0,54,0.00,,,0.00,WUHU21623XXSP,2013-08-22 13:36:00,
2013-08-22 08:41:00,69.4,52.5,30.11,North,0,0.0,0.0,55,0.00,,,0.00,WUHU21623XXSP,2013-08-22 13:41:00,
2013-08-22 08:46:00,69.6,52.7,30.11,North,0,0.0,0.0,55,0.00,,,0.00,WUHU21623XXSP,2013-08-22 13:46:00,
2013-08-22 08:51:00,69.8,52.4,30.11,North,0,0.0,0.0,54,0.00,,,0.00,WUHU21623XXSP,2013-08-22 13:51:00,
2013-08-22 08:56:00,70.2,53.2,30.10,North,0,0.0,0.0,55,0.00,,,0.00,WUHU21623XXSP,2013-08-22 13:56:00,
2013-08-22 09:01:00,70.2,52.7,30.10,North,0,0.0,0.0,54,0.00,,,0.00,WUHU21623XXSP,2013-08-22 14:01:00,
2013-08-22 09:06:00,70.2,52.7,30.10,North,0,0.0,0.0,54,0.00,,,0.00,WUHU21623XXSP,2013-08-22 14:06:00,
2013-08-22 09:11:00,70.3,52.9,30.10,North,0,0.0,0.0,54,0.00,,,0.00,WUHU21623XXSP,2013-08-22 14:11:00,
2013-08-22 09:17:00,70.5,53.5,30.09,North,0,0.0,0.0,55,0.00,,,0.00,WUHU21623XXSP,2013-08-22 14:17:00,
2013-08-22 09:22:00,70.9,53.9,30.10,North,0,0.0,0.0,55,0.00,,,0.00,WUHU21623XXSP,2013-08-22 14:22:00,
2013-08-22 09:27:00,71.2,54.2,30.10,North,0,0.0,0.0,55,0.00,,,0.00,WUHU21623XXSP,2013-08-22 14:27:00,
2013-08-22 09:32:00,71.2,54.2,30.10,North,0,0.0,0.0,55,0.00,,,0.00,WUHU21623XXSP,2013-08-22 14:32:00,
2013-08-22 09:37:00,71.6,54.3,30.10,North,0,0.0,0.0,55,0.00,,,0.00,WUHU21623XXSP,2013-08-22 14:37:00,
2013-08-22 09:42:00,71.8,54.2,30.10,North,0,0.0,0.0,54,0.00,,,0.00,WUHU21623XXSP,2013-08-22 14:42:00,
2013-08-22 09:47:00,72.1,54.3,30.10,North,0,0.0,0.0,54,0.00,,,0.00,WUHU21623XXSP,2013-08-22 14:47:00,
2013-08-22 09:52:00,72.3,55.1,30.10,North,0,0.0,0.0,55,0.00,,,0.00,WUHU21623XXSP,2013-08-22 14:52:00,
2013-08-22 09:57:00,72.3,54.6,30.10,North,0,0.0,0.0,54,0.00,,,0.00,WUHU21623XXSP,2013-08-22 14:57:00,
2013-08-22 10:02:00,72.7,55.0,30.10,North,0,0.0,0.0,54,0.00,,,0.00,WUHU21623XXSP,2013-08-22 15:02:00,
2013-08-22 10:07:00,72.9,55.6,30.10,North,0,0.0,0.0,55,0.00,,,0.00,WUHU21623XXSP,2013-08-22 15:07:00,
2013-08-22 10:12:00,73.0,55.8,30.10,North,0,0.0,0.0,56,0.00,,,0.00,WUHU21623XXSP,2013-08-22 15:12:00,
2013-08-22 10:17:00,73.0,55.8,30.10,North,0,0.0,0.0,55,0.00,,,0.00,WUHU21623XXSP,2013-08-22 15:17:00,
2013-08-22 10:22:00,73.0,55.3,30.11,North,0,0.0,0.0,54,0.00,,,0.00,WUHU21623XXSP,2013-08-22 15:22:00,
2013-08-22 10:27:00,73.2,56.0,30.11,North,0,0.0,0.0,55,0.00,,,0.00,WUHU21623XXSP,2013-08-22 15:27:00,
2013-08-22 10:32:00,73.2,55.5,30.11,North,0,0.0,0.0,54,0.00,,,0.00,WUHU21623XXSP,2013-08-22 15:32:00,
2013-08-22 10:37:00,73.4,56.1,30.11,North,0,0.0,0.0,55,0.00,,,0.00,WUHU21623XXSP,2013-08-22 15:37:00,
2013-08-22 10:42:00,73.8,56.0,30.11,North,0,0.0,0.0,54,0.00,,,0.00,WUHU21623XXSP,2013-08-22 15:42:00,
2013-08-22 10:47:00,73.9,55.1,30.11,North,0,0.0,0.0,52,0.00,,,0.00,WUHU21623XXSP,2013-08-22 15:47:00,
2013-08-22 10:52:00,74.1,55.8,30.11,North,0,0.0,0.0,53,0.00,,,0.00,WUHU21623XXSP,2013-08-22 15:52:00,
2013-08-22 10:58:00,74.3,55.5,30.11,North,0,0.0,0.0,52,0.00,,,0.00,WUHU21623XXSP,2013-08-22 15:58:00,
2013-08-22 11:03:00,74.5,55.7,30.11,North,0,0.0,0.0,51,0.00,,,0.00,WUHU21623XXSP,2013-08-22 16:03:00,
2013-08-22 11:08:00,74.8,55.5,30.11,North,0,0.0,0.0,51,0.00,,,0.00,WUHU21623XXSP,2013-08-22 16:08:00,
2013-08-22 11:13:00,75.0,55.2,30.11,North,0,0.0,0.0,50,0.00,,,0.00,WUHU21623XXSP,2013-08-22 16:13:00,
2013-08-22 11:18:00,75.0,54.6,30.11,North,0,0.0,0.0,49,0.00,,,0.00,WUHU21623XXSP,2013-08-22 16:18:00,
2013-08-22 11:23:00,75.4,56.1,30.11,North,0,0.0,0.0,51,0.00,,,0.00,WUHU21623XXSP,2013-08-22 16:23:00,
2013-08-22 11:28:00,75.6,55.7,30.11,North,0,0.0,0.0,50,0.00,,,0.00,WUHU21623XXSP,2013-08-22 16:28:00,
2013-08-22 11:33:00,75.7,55.9,30.11,North,0,0.0,0.0,50,0.00,,,0.00,WUHU21623XXSP,2013-08-22 16:33:00,
2013-08-22 11:38:00,75.7,55.9,30.11,North,0,0.0,0.0,49,0.00,,,0.00,WUHU21623XXSP,2013-08-22 16:38:00,
2013-08-22 11:43:00,75.7,55.3,30.10,North,0,0.0,0.0,49,0.00,,,0.00,WUHU21623XXSP,2013-08-22 16:43:00,
2013-08-22 11:48:00,76.1,56.2,30.10,North,0,0.0,0.0,50,0.00,,,0.00,WUHU21623XXSP,2013-08-22 16:48:00,
2013-08-22 11:53:00,76.3,55.8,30.10,North,0,0.0,0.0,49,0.00,,,0.00,WUHU21623XXSP,2013-08-22 16:53:00,
2013-08-22 11:58:00,76.3,55.8,30.10,North,0,0.0,0.0,49,0.00,,,0.00,WUHU21623XXSP,2013-08-22 16:58:00,
2013-08-22 12:03:00,76.5,55.9,30.10,North,0,0.0,0.0,49,0.00,,,0.00,WUHU21623XXSP,2013-08-22 17:03:00,
2013-08-22 12:08:00,76.6,55.5,30.10,North,0,0.0,0.0,48,0.00,,,0.00,WUHU21623XXSP,2013-08-22 17:08:00,
2013-08-22 12:13:00,76.6,55.5,30.10,North,0,0.0,0.0,48,0.00,,,0.00,WUHU21623XXSP,2013-08-22 17:13:00,
2013-08-22 12:18:00,76.6,55.5,30.10,North,0,0.0,0.0,48,0.00,,,0.00,WUHU21623XXSP,2013-08-22 17:18:00,
2013-08-22 12:23:00,76.8,55.6,30.10,North,0,0.0,0.0,48,0.00,,,0.00,WUHU21623XXSP,2013-08-22 17:23:00,
2013-08-22 12:28:00,77.2,55.8,30.10,North,0,0.0,0.0,49,0.00,,,0.00,WUHU21623XXSP,2013-08-22 17:28:00,
2013-08-22 12:33:00,77.5,56.3,30.10,North,0,0.0,0.0,48,0.00,,,0.00,WUHU21623XXSP,2013-08-22 17:33:00,
2013-08-22 12:38:00,77.5,55.7,30.10,North,0,0.0,0.0,47,0.00,,,0.00,WUHU21623XXSP,2013-08-22 17:38:00,
2013-08-22 12:43:00,77.7,55.8,30.11,North,0,0.0,0.0,47,0.00,,,0.00,WUHU21623XXSP,2013-08-22 17:43:00,
2013-08-22 12:48:00,77.7,55.2,30.10,North,0,0.0,0.0,47,0.00,,,0.00,WUHU21623XXSP,2013-08-22 17:48:00,
2013-08-22 12:53:00,78.1,55.5,30.11,North,0,0.0,0.0,46,0.00,,,0.00,WUHU21623XXSP,2013-08-22 17:53:00,
2013-08-22 12:58:00,78.4,55.9,30.11,North,0,0.0,0.0,46,0.00,,,0.00,WUHU21623XXSP,2013-08-22 17:58:00,
2013-08-22 13:03:00,78.6,56.5,30.10,North,0,0.0,0.0,45,0.00,,,0.00,WUHU21623XXSP,2013-08-22 18:03:00,
2013-08-22 13:08:00,78.6,56.0,30.11,North,0,0.0,0.0,45,0.00,,,0.00,WUHU21623XXSP,2013-08-22 18:08:00,
2013-08-22 13:13:00,79.0,57.0,30.10,North,0,0.0,0.0,47,0.00,,,0.00,WUHU21623XXSP,2013-08-22 18:13:00,
2013-08-22 13:18:00,79.2,55.9,30.11,North,0,0.0,0.0,45,0.00,,,0.00,WUHU21623XXSP,2013-08-22 18:18:00,
2013-08-22 13:23:00,79.0,55.1,30.10,North,0,0.0,0.0,44,0.00,,,0.00,WUHU21623XXSP,2013-08-22 18:23:00,
2013-08-22 13:28:00,79.3,55.9,30.10,North,0,0.0,0.0,46,0.00,,,0.00,WUHU21623XXSP,2013-08-22 18:28:00,
2013-08-22 13:33:00,79.5,56.8,30.10,North,0,0.0,0.0,46,0.00,,,0.00,WUHU21623XXSP,2013-08-22 18:33:00,
2013-08-22 13:38:00,79.7,57.0,30.10,North,0,0.0,0.0,46,0.00,,,0.00,WUHU21623XXSP,2013-08-22 18:38:00,
2013-08-22 13:43:00,79.5,56.2,30.10,North,0,0.0,0.0,45,0.00,,,0.00,WUHU21623XXSP,2013-08-22 18:43:00,
2013-08-22 13:48:00,79.9,57.2,30.09,North,0,0.0,0.0,46,0.00,,,0.00,WUHU21623XXSP,2013-08-22 18:48:00,
2013-08-22 13:53:00,79.9,55.9,30.10,North,0,0.0,0.0,44,0.00,,,0.00,WUHU21623XXSP,2013-08-22 18:53:00,
2013-08-22 13:58:00,80.2,56.3,30.10,North,0,0.0,0.0,44,0.00,,,0.00,WUHU21623XXSP,2013-08-22 18:58:00,
2013-08-22 14:03:00,80.2,56.3,30.10,North,0,0.0,0.0,43,0.00,,,0.00,WUHU21623XXSP,2013-08-22 19:03:00,
2013-08-22 14:08:00,80.4,56.4,30.10,North,0,0.0,0.0,44,0.00,,,0.00,WUHU21623XXSP,2013-08-22 19:08:00,
2013-08-22 14:13:00,80.6,56.0,30.10,North,0,0.0,0.0,43,0.00,,,0.00,WUHU21623XXSP,2013-08-22 19:13:00,
2013-08-22 14:18:00,80.8,56.1,30.10,North,0,0.0,0.0,43,0.00,,,0.00,WUHU21623XXSP,2013-08-22 19:18:00,
2013-08-22 14:23:00,81.0,55.7,30.09,North,0,0.0,0.0,42,0.00,,,0.00,WUHU21623XXSP,2013-08-22 19:23:00,
2013-08-22 14:28:00,81.1,56.5,30.09,North,0,0.0,0.0,43,0.00,,,0.00,WUHU21623XXSP,2013-08-22 19:28:00,
2013-08-22 14:33:00,81.1,55.9,30.09,North,0,0.0,0.0,42,0.00,,,0.00,WUHU21623XXSP,2013-08-22 19:33:00,
2013-08-22 14:38:00,81.3,55.4,30.09,North,0,0.0,0.0,41,0.00,,,0.00,WUHU21623XXSP,2013-08-22 19:38:00,
2013-08-22 14:43:00,81.3,56.0,30.09,North,0,0.0,0.0,42,0.00,,,0.00,WUHU21623XXSP,2013-08-22 19:43:00,
2013-08-22 14:48:00,81.3,56.0,30.09,North,0,0.0,0.0,42,0.00,,,0.00,WUHU21623XXSP,2013-08-22 19:48:00,
2013-08-22 14:53:00,81.5,56.2,30.09,North,0,0.0,0.0,42,0.00,,,0.00,WUHU21623XXSP,2013-08-22 19:53:00,
2013-08-22 14:58:00,81.7,55.7,30.09,North,0,0.0,0.0,41,0.00,,,0.00,WUHU21623XXSP,2013-08-22 19:58:00,
2013-08-22 15:03:00,81.7,56.3,30.09,North,0,0.0,0.0,41,0.00,,,0.00,WUHU21623XXSP,2013-08-22 20:03:00,
2013-08-22 15:08:00,81.7,55.7,30.09,North,0,0.0,0.0,41,0.00,,,0.00,WUHU21623XXSP,2013-08-22 20:08:00,
2013-08-22 15:13:00,81.7,55.7,30.09,North,0,0.0,0.0,41,0.00,,,0.00,WUHU21623XXSP,2013-08-22 20:13:00,
2013-08-22 15:18:00,82.0,56.7,30.09,North,0,0.0,0.0,42,0.00,,,0.00,WUHU21623XXSP,2013-08-22 20:18:00,
2013-08-22 15:24:00,82.2,56.0,30.09,North,0,0.0,0.0,41,0.00,,,0.00,WUHU21623XXSP,2013-08-22 20:24:00,
2013-08-22 15:29:00,82.6,57.8,30.09,North,0,0.0,0.0,43,0.00,,,0.00,WUHU21623XXSP,2013-08-22 20:29:00,
2013-08-22 15:34:00,82.8,56.7,30.09,North,0,0.0,0.0,41,0.00,,,0.00,WUHU21623XXSP,2013-08-22 20:34:00,
2013-08-22 15:39:00,82.8,56.7,30.09,North,0,0.0,0.0,41,0.00,,,0.00,WUHU21623XXSP,2013-08-22 20:39:00,
2013-08-22 15:44:00,82.6,56.5,30.09,North,0,0.0,0.0,41,0.00,,,0.00,WUHU21623XXSP,2013-08-22 20:44:00,
2013-08-22 15:49:00,82.6,56.5,30.09,North,0,0.0,0.0,41,0.00,,,0.00,WUHU21623XXSP,2013-08-22 20:49:00,
2013-08-22 15:54:00,82.8,57.3,30.09,North,0,0.0,0.0,43,0.00,,,0.00,WUHU21623XXSP,2013-08-22 20:54:00,
2013-08-22 15:59:00,82.9,58.1,30.09,North,0,0.0,0.0,43,0.00,,,0.00,WUHU21623XXSP,2013-08-22 20:59:00,
2013-08-22 16:04:00,83.3,58.4,30.09,North,0,0.0,0.0,43,0.00,,,0.00,WUHU21623XXSP,2013-08-22 21:04:00,
2013-08-22 16:09:00,83.5,58.6,30.09,North,0,0.0,0.0,43,0.00,,,0.00,WUHU21623XXSP,2013-08-22 21:09:00,
2013-08-22 16:14:00,83.5,57.3,30.09,North,0,0.0,0.0,41,0.00,,,0.00,WUHU21623XXSP,2013-08-22 21:14:00,
2013-08-22 16:19:00,83.7,58.8,30.09,North,0,0.0,0.0,43,0.00,,,0.00,WUHU21623XXSP,2013-08-22 21:19:00,
2013-08-22 16:24:00,83.7,58.8,30.09,North,0,0.0,0.0,43,0.00,,,0.00,WUHU21623XXSP,2013-08-22 21:24:00,
2013-08-22 16:29:00,83.8,58.9,30.08,North,0,0.0,0.0,43,0.00,,,0.00,WUHU21623XXSP,2013-08-22 21:29:00,
2013-08-22 16:34:00,83.8,58.3,30.08,North,0,0.0,0.0,42,0.00,,,0.00,WUHU21623XXSP,2013-08-22 21:34:00,
2013-08-22 16:39:00,84.0,58.5,30.08,North,0,0.0,0.0,42,0.00,,,0.00,WUHU21623XXSP,2013-08-22 21:39:00,
2013-08-22 16:44:00,84.0,57.8,30.08,North,0,0.0,0.0,41,0.00,,,0.00,WUHU21623XXSP,2013-08-22 21:44:00,
2013-08-22 16:49:00,84.0,57.8,30.09,North,0,0.0,0.0,41,0.00,,,0.00,WUHU21623XXSP,2013-08-22 21:49:00,
2013-08-22 16:54:00,84.2,57.4,30.09,North,0,0.0,0.0,40,0.00,,,0.00,WUHU21623XXSP,2013-08-22 21:54:00,
2013-08-22 16:59:00,84.4,57.5,30.09,North,0,0.0,0.0,40,0.00,,,0.00,WUHU21623XXSP,2013-08-22 21:59:00,
2013-08-22 17:04:00,84.4,57.5,30.09,North,0,0.0,0.0,40,0.00,,,0.00,WUHU21623XXSP,2013-08-22 22:04:00,
2013-08-22 17:09:00,84.7,57.9,30.09,North,0,0.0,0.0,40,0.00,,,0.00,WUHU21623XXSP,2013-08-22 22:09:00,
2013-08-22 17:14:00,84.7,57.9,30.09,North,0,0.0,0.0,40,0.00,,,0.00,WUHU21623XXSP,2013-08-22 22:14:00,
2013-08-22 17:19:00,84.7,57.9,30.09,North,0,0.0,0.0,40,0.00,,,0.00,WUHU21623XXSP,2013-08-22 22:19:00,
2013-08-22 17:24:00,84.9,57.2,30.09,North,0,0.0,0.0,39,0.00,,,0.00,WUHU21623XXSP,2013-08-22 22:24:00,
2013-08-22 17:29:00,85.1,57.4,30.08,North,0,0.0,0.0,39,0.00,,,0.00,WUHU21623XXSP,2013-08-22 22:29:00,
2013-08-22 17:34:00,85.1,57.4,30.08,North,0,0.0,0.0,39,0.00,,,0.00,WUHU21623XXSP,2013-08-22 22:34:00,
2013-08-22 17:39:00,85.3,57.6,30.08,North,0,0.0,0.0,39,0.00,,,0.00,WUHU21623XXSP,2013-08-22 22:39:00,
2013-08-22 17:44:00,85.3,57.6,30.08,North,0,0.0,0.0,39,0.00,,,0.00,WUHU21623XXSP,2013-08-22 22:44:00,
2013-08-22 17:49:00,85.6,57.9,30.08,North,0,0.0,0.0,39,0.00,,,0.00,WUHU21623XXSP,2013-08-22 22:49:00,
2013-08-22 17:54:00,85.6,57.9,30.08,North,0,0.0,0.0,39,0.00,,,0.00,WUHU21623XXSP,2013-08-22 22:54:00,
2013-08-22 17:59:00,85.8,57.3,30.08,North,0,0.0,0.0,38,0.00,,,0.00,WUHU21623XXSP,2013-08-22 22:59:00,
2013-08-22 18:04:00,85.8,57.3,30.08,North,0,0.0,0.0,38,0.00,,,0.00,WUHU21623XXSP,2013-08-22 23:04:00,
2013-08-22 18:09:00,85.8,58.0,30.08,North,0,0.0,0.0,39,0.00,,,0.00,WUHU21623XXSP,2013-08-22 23:09:00,
2013-08-22 18:14:00,85.6,57.3,30.08,North,0,0.0,0.0,38,0.00,,,0.00,WUHU21623XXSP,2013-08-22 23:14:00,
2013-08-22 18:19:00,85.6,57.1,30.08,North,0,0.0,0.0,38,0.00,,,0.00,WUHU21623XXSP,2013-08-22 23:19:00,
2013-08-22 18:24:00,85.6,57.9,30.07,North,0,0.0,0.0,39,0.00,,,0.00,WUHU21623XXSP,2013-08-22 23:24:00,
2013-08-22 18:29:00,85.6,57.9,30.07,North,0,0.0,0.0,39,0.00,,,0.00,WUHU21623XXSP,2013-08-22 23:29:00,
2013-08-22 18:34:00,85.6,58.0,30.07,North,0,0.0,0.0,41,0.00,,,0.00,WUHU21623XXSP,2013-08-22 23:34:00,
2013-08-22 18:39:00,85.6,59.3,30.08,North,0,0.0,0.0,41,0.00,,,0.00,WUHU21623XXSP,2013-08-22 23:39:00,
2013-08-22 18:44:00,85.5,59.8,30.08,North,0,0.0,0.0,42,0.00,,,0.00,WUHU21623XXSP,2013-08-22 23:44:00,
2013-08-22 18:49:00,85.1,59.5,30.08,North,0,0.0,0.0,42,0.00,,,0.00,WUHU21623XXSP,2013-08-22 23:49:00,
2013-08-22 18:54:00,84.9,59.9,30.08,North,0,0.0,0.0,43,0.00,,,0.00,WUHU21623XXSP,2013-08-22 23:54:00,
2013-08-22 18:59:00,84.7,59.8,30.08,North,0,0.0,0.0,43,0.00,,,0.00,WUHU21623XXSP,2013-08-22 23:59:00,
2013-08-22 19:04:00,84.7,61.0,30.08,North,0,0.0,0.0,45,0.00,,,0.00,WUHU21623XXSP,2013-08-23 00:04:00,
2013-08-22 19:09:00,84.7,61.0,30.08,North,0,0.0,0.0,45,0.00,,,0.00,WUHU21623XXSP,2013-08-23 00:09:00,
2013-08-22 19:14:00,84.9,61.8,30.08,North,0,0.0,0.0,46,0.00,,,0.00,WUHU21623XXSP,2013-08-23 00:14:00,
2013-08-22 19:19:00,84.9,62.4,30.08,North,0,0.0,0.0,47,0.00,,,0.00,WUHU21623XXSP,2013-08-23 00:19:00,
2013-08-22 19:24:00,84.9,61.8,30.08,North,0,0.0,0.0,46,0.00,,,0.00,WUHU21623XXSP,2013-08-23 00:24:00,
2013-08-22 19:29:00,84.7,61.6,30.08,North,0,0.0,0.0,46,0.00,,,0.00,WUHU21623XXSP,2013-08-23 00:29:00,
2013-08-22 19:34:00,81.8,59.7,30.08,North,0,0.0,0.0,47,0.00,,,0.00,WUHU21623XXSP,2013-08-23 00:34:00,
2013-08-22 19:39:00,81.6,59.5,30.08,North,0,0.0,0.0,47,0.00,,,0.00,WUHU21623XXSP,2013-08-23 00:39:00,
2013-08-22 19:44:00,80.8,58.1,30.07,North,0,0.0,0.0,46,0.00,,,0.00,WUHU21623XXSP,2013-08-23 00:44:00,
2013-08-22 19:49:00,79.7,58.4,30.07,North,0,0.0,0.0,48,0.00,,,0.00,WUHU21623XXSP,2013-08-23 00:49:00,
2013-08-22 19:54:00,78.9,57.6,30.08,North,0,0.0,0.0,48,0.00,,,0.00,WUHU21623XXSP,2013-08-23 00:54:00,
2013-08-22 20:00:00,78.2,58.2,30.08,North,0,0.0,0.0,50,0.00,,,0.00,WUHU21623XXSP,2013-08-23 01:00:00,
2013-08-22 20:05:00,77.1,57.7,30.08,North,0,0.0,0.0,51,0.00,,,0.00,WUHU21623XXSP,2013-08-23 01:05:00,
2013-08-22 20:10:00,76.3,57.5,30.08,North,0,0.0,0.0,52,0.00,,,0.00,WUHU21623XXSP,2013-08-23 01:10:00,
2013-08-22 20:15:00,75.7,56.9,30.08,North,0,0.0,0.0,52,0.00,,,0.00,WUHU21623XXSP,2013-08-23 01:15:00,
2013-08-22 20:20:00,74.9,57.3,30.08,North,0,0.0,0.0,54,0.00,,,0.00,WUHU21623XXSP,2013-08-23 01:20:00,
2013-08-22 20:25:00,74.7,57.6,30.08,North,0,0.0,0.0,55,0.00,,,0.00,WUHU21623XXSP,2013-08-23 01:25:00,
2013-08-22 20:30:00,73.9,56.9,30.09,North,0,0.0,0.0,55,0.00,,,0.00,WUHU21623XXSP,2013-08-23 01:30:00,
2013-08-22 20:35:00,73.7,57.2,30.09,North,0,0.0,0.0,56,0.00,,,0.00,WUHU21623XXSP,2013-08-23 01:35:00,
2013-08-22 20:40:00,73.2,57.2,30.09,North,0,0.0,0.0,57,0.00,,,0.00,WUHU21623XXSP,2013-08-23 01:40:00,
2013-08-22 20:45:00,73.0,57.0,30.09,North,0,0.0,0.0,57,0.00,,,0.00,WUHU21623XXSP,2013-08-23 01:45:00,
2013-08-22 20:50:00,72.7,56.7,30.09,North,0,0.0,0.0,57,0.00,,,0.00,WUHU21623XXSP,2013-08-23 01:50:00,
2013-08-22 20:55:00,72.5,56.6,30.09,North,0,0.0,0.0,57,0.00,,,0.00,WUHU21623XXSP,2013-08-23 01:55:00,
2013-08-22 21:00:00,72.5,56.6,30.09,North,0,0.0,0.0,57,0.00,,,0.00,WUHU21623XXSP,2013-08-23 02:00:00,
2013-08-22 21:05:00,72.4,57.0,30.09,North,0,0.0,0.0,58,0.00,,,0.00,WUHU21623XXSP,2013-08-23 02:05:00,
2013-08-22 21:10:00,72.3,57.4,30.10,North,0,0.0,0.0,59,0.00,,,0.00,WUHU21623XXSP,2013-08-23 02:10:00,
2013-08-22 21:15:00,72.2,57.3,30.10,North,0,0.0,0.0,59,0.00,,,0.00,WUHU21623XXSP,2013-08-23 02:15:00,
2013-08-22 21:20:00,72.0,57.1,30.10,North,0,0.0,0.0,59,0.00,,,0.00,WUHU21623XXSP,2013-08-23 02:20:00,
2013-08-22 21:25:00,71.5,57.1,30.10,North,0,0.0,0.0,60,0.00,,,0.00,WUHU21623XXSP,2013-08-23 02:25:00,
2013-08-22 21:30:00,71.2,57.2,30.10,North,0,0.0,0.0,61,0.00,,,0.00,WUHU21623XXSP,2013-08-23 02:30:00,
2013-08-22 21:35:00,70.8,57.4,30.10,North,0,0.0,0.0,62,0.00,,,0.00,WUHU21623XXSP,2013-08-23 02:35:00,
2013-08-22 21:40:00,70.7,57.3,30.10,North,0,0.0,0.0,62,0.00,,,0.00,WUHU21623XXSP,2013-08-23 02:40:00,
2013-08-22 21:45:00,70.6,57.1,30.10,North,0,0.0,0.0,62,0.00,,,0.00,WUHU21623XXSP,2013-08-23 02:45:00,
2013-08-22 21:50:00,70.7,57.2,30.10,North,0,0.0,0.0,62,0.00,,,0.00,WUHU21623XXSP,2013-08-23 02:50:00,
2013-08-22 21:55:00,70.8,57.3,30.10,North,0,0.0,0.0,62,0.00,,,0.00,WUHU21623XXSP,2013-08-23 02:55:00,
2013-08-22 22:00:00,70.9,57.4,30.10,North,0,0.0,0.0,62,0.00,,,0.00,WUHU21623XXSP,2013-08-23 03:00:00,
2013-08-22 22:05:00,70.5,57.3,30.10,North,0,0.0,0.0,63,0.00,,,0.00,WUHU21623XXSP,2013-08-23 03:05:00,
2013-08-22 22:10:00,70.2,57.4,30.10,North,0,0.0,0.0,64,0.00,,,0.00,WUHU21623XXSP,2013-08-23 03:10:00,
2013-08-22 22:15:00,69.6,57.7,30.10,North,0,0.0,0.0,66,0.00,,,0.00,WUHU21623XXSP,2013-08-23 03:15:00,
2013-08-22 22:20:00,69.4,57.7,30.11,North,0,0.0,0.0,66,0.00,,,0.00,WUHU21623XXSP,2013-08-23 03:20:00,
2013-08-22 22:25:00,69.1,57.2,30.11,North,0,0.0,0.0,66,0.00,,,0.00,WUHU21623XXSP,2013-08-23 03:25:00,
2013-08-22 22:30:00,69.1,57.6,30.11,North,0,0.0,0.0,67,0.00,,,0.00,WUHU21623XXSP,2013-08-23 03:30:00,
2013-08-22 22:35:00,68.9,57.5,30.11,North,0,0.0,0.0,67,0.00,,,0.00,WUHU21623XXSP,2013-08-23 03:35:00,
2013-08-22 22:40:00,68.7,57.3,30.11,North,0,0.0,0.0,67,0.00,,,0.00,WUHU21623XXSP,2013-08-23 03:40:00,
2013-08-22 22:45:00,68.7,57.3,30.11,North,0,0.0,0.0,67,0.00,,,0.00,WUHU21623XXSP,2013-08-23 03:45:00,
2013-08-22 22:50:00,68.5,57.1,30.11,North,0,0.0,0.0,68,0.00,,,0.00,WUHU21623XXSP,2013-08-23 03:50:00,
2013-08-22 22:55:00,68.2,58.1,30.11,North,0,0.0,0.0,70,0.00,,,0.00,WUHU21623XXSP,2013-08-23 03:55:00,
2013-08-22 23:00:00,67.8,57.7,30.11,North,0,0.0,0.0,70,0.00,,,0.00,WUHU21623XXSP,2013-08-23 04:00:00,
2013-08-22 23:01:00,67.8,57.7,30.11,North,0,0.0,0.0,70,0.00,,,0.00,WUHU21623XXSP,2013-08-23 04:01:00,
2013-08-22 23:06:00,67.8,58.5,30.11,North,0,0.0,0.0,72,0.00,,,0.00,WUHU21623XXSP,2013-08-23 04:06:00,
2013-08-22 23:11:00,67.6,57.9,30.11,North,0,0.0,0.0,71,0.00,,,0.00,WUHU21623XXSP,2013-08-23 04:11:00,
2013-08-22 23:16:00,67.6,57.9,30.11,North,0,0.0,0.0,71,0.00,,,0.00,WUHU21623XXSP,2013-08-23 04:16:00,
2013-08-22 23:21:00,67.3,57.6,30.11,North,0,0.0,0.0,71,0.00,,,0.00,WUHU21623XXSP,2013-08-23 04:21:00,
2013-08-22 23:26:00,67.3,57.6,30.11,North,0,0.0,0.0,71,0.00,,,0.00,WUHU21623XXSP,2013-08-23 04:26:00,
2013-08-22 23:31:00,67.1,57.0,30.11,North,0,0.0,0.0,70,0.00,,,0.00,WUHU21623XXSP,2013-08-23 04:31:00,
2013-08-22 23:36:00,66.9,56.4,30.11,North,0,0.0,0.0,69,0.00,,,0.00,WUHU21623XXSP,2013-08-23 04:36:00,
2013-08-22 23:41:00,66.7,56.2,30.11,North,0,0.0,0.0,69,0.00,,,0.00,WUHU21623XXSP,2013-08-23 04:41:00,
2013-08-22 23:46:00,66.7,56.2,30.11,North,0,0.0,0.0,69,0.00,,,0.00,WUHU21623XXSP,2013-08-23 04:46:00,
2013-08-22 23:51:00,66.0,56.7,30.11,North,0,0.0,0.0,72,0.00,,,0.00,WUHU21623XXSP,2013-08-23 04:51:00,
2013-08-22 23:56:00,66.0,57.5,30.11,North,0,0.0,0.0,74,0.00,,,0.00,WUHU21623XXSP,2013-08-23 04:56:00,